Location: Girdwood
(60.9430°N, 149.1660°W)
Time: 10:41:26
(UTC-08:00)

Amateur Radio Satellites - All Passes

Search period start: 27 July 2017 10:11
Search period end: 28 July 2017 10:11
Location: Girdwood, 60.9430°N, 149.1660°W

Satellite Date Start Highest point End Downlink Frequencies (MHz)
Time Altitude Azimuth
XW-2C 27 Jul 10:13:17 10:15:58 19° 308° (NW) 10:18:38 145.795 - 145.815
NANOSAT C BR1 27 Jul 10:16:00 10:17:53 13° 40° (NE) 10:19:45 145.865
EO-79 27 Jul 10:17:24 10:19:32 14° 41° (NE) 10:21:40 145.935-145.965
CUTE-I 27 Jul 10:18:12 10:23:05 36° 307° (NW) 10:27:55 437.470
FO-29 27 Jul 10:24:41 10:32:35 80° 254° (WSW) 10:40:22 435.910
KAITUO 1B 27 Jul 10:28:56 10:31:24 17° 309° (NW) 10:33:51 145.475/437.950
AAUSAT CUBESAT 2 27 Jul 10:37:42 10:41:55 90° 121° (ESE) 10:46:07 437.432
LilacSat-2 27 Jul 10:40:22 10:42:10 13° 314° (NW) 10:43:57 437.200
TIGRISAT 27 Jul 10:41:54 10:46:31 88° 262° (W) 10:51:02 435.000
AO-7 27 Jul 10:42:41 10:49:07 26° 352° (N) 10:55:32 .
PRISM 27 Jul 10:43:23 10:47:31 88° 261° (W) 10:51:43 437.425
AIST 2D 27 Jul 10:45:46 10:48:29 21° 56° (ENE) 10:51:13 435.315
XW-2A 27 Jul 10:46:36 10:49:43 37° 297° (WNW) 10:52:50 145.665 - 145.685
XW-2F 27 Jul 10:49:52 10:51:19 12° 316° (NW) 10:52:47 145.980 - 146.000
UWE-3 27 Jul 10:54:01 10:58:16 69° 291° (WNW) 11:02:24 435.000/436.395/437.385
ZACube-1 27 Jul 11:01:40 11:05:53 90° 267° (W) 11:10:02 437.345
DOVE 4 27 Jul 11:03:15 11:05:40 13° 328° (NNW) 11:08:04 437.250
HO-68 27 Jul 11:03:35 11:10:36 59° 304° (WNW) 11:17:35 435.675
EO-88 27 Jul 11:04:06 11:06:45 19° 89° (E) 11:09:23 145.990 - 145.960
Oscar 19 27 Jul 11:09:39 11:11:58 13° 29° (NNE) 11:14:18 437.125/150
DELFI C3 27 Jul 11:15:53 11:19:35 34° 95° (E) 11:23:16 145.870
DUCHIFAT 1 27 Jul 11:20:11 11:23:43 26° 54° (NE) 11:27:15 145.980
Oscar 11 27 Jul 11:22:54 11:27:14 83° 289° (WNW) 11:31:34 .
M-CUBED/EXP-1 PRIME 27 Jul 11:23:43 11:27:33 48° 253° (WSW) 11:31:42 437.505
POLYITAN 1 27 Jul 11:26:27 11:30:15 32° 58° (ENE) 11:34:03 437.675
CUTE 1.7 + AOD 2 27 Jul 11:31:22 11:34:30 20° 310° (NW) 11:37:38 437.475
PCSat 27 Jul 11:33:59 11:39:17 49° 14° (NNE) 11:44:35 145.827
UNISAT 6 27 Jul 11:35:41 11:39:55 36° 264° (W) 11:44:05 437.425
SEEDS 27 Jul 11:38:14 11:41:35 23° 307° (NW) 11:44:55 437.485
CUBEBUG 2 27 Jul 11:38:28 11:42:05 26° 306° (NW) 11:45:37 437.445
BUGSAT 1 27 Jul 11:39:01 11:41:52 18° 47° (NE) 11:44:43 437.445
QB50P2 27 Jul 11:39:24 11:43:25 41° 61° (ENE) 11:47:26 145.880/145.840
AO-73 27 Jul 11:40:23 11:44:27 50° 295° (WNW) 11:48:27 145.935
SO-50 27 Jul 11:45:52 11:50:18 54° 3° (N) 11:54:47 436.795
NANOSAT C BR1 27 Jul 11:48:40 11:52:41 42° 62° (ENE) 11:56:42 145.865
EO-79 27 Jul 11:50:21 11:54:26 46° 63° (ENE) 11:58:32 145.935-145.965
Gurwin Techsat 1B 27 Jul 11:55:48 11:59:10 17° 36° (NE) 12:02:32 435.225
CUTE-I 27 Jul 11:59:00 12:01:52 15° 330° (NNW) 12:04:43 437.470
FO-29 27 Jul 12:12:01 12:18:40 29° 276° (W) 12:25:17 435.910
AAUSAT CUBESAT 2 27 Jul 12:13:45 12:16:55 21° 308° (NW) 12:20:05 437.432
AIST 2D 27 Jul 12:17:57 12:21:24 63° 256° (WSW) 12:24:54 435.315
TIGRISAT 27 Jul 12:20:30 12:23:49 20° 273° (W) 12:27:08 435.000
PRISM 27 Jul 12:20:36 12:23:26 18° 273° (W) 12:26:17 437.425
UWE-3 27 Jul 12:31:15 12:34:05 18° 313° (NW) 12:36:53 435.000/436.395/437.385
LO-87 27 Jul 12:32:38 12:35:40 24° 92° (E) 12:38:41 145.935 - 145.965
AO-7 27 Jul 12:32:56 12:39:42 29° 19° (NNE) 12:46:28 .
NO-84 27 Jul 12:34:38 12:36:05 13° 145° (SE) 12:37:36 435.350 FM
EO-88 27 Jul 12:37:13 12:40:52 72° 290° (WNW) 12:44:30 145.990 - 145.960
ZACube-1 27 Jul 12:38:33 12:41:43 21° 309° (NW) 12:44:50 437.345
Oscar 19 27 Jul 12:45:28 12:50:00 33° 52° (NE) 12:54:34 437.125/150
DELFI C3 27 Jul 12:50:39 12:54:29 44° 296° (WNW) 12:58:19 145.870
HO-68 27 Jul 12:51:31 12:57:14 27° 328° (NNW) 13:02:56 435.675
ESTCUBE 1 27 Jul 12:53:48 12:57:47 29° 93° (E) 13:01:44 437.505/2401.250
DUCHIFAT 1 27 Jul 12:54:51 12:59:05 71° 254° (WSW) 13:03:21 145.980
Oscar 11 27 Jul 12:59:39 13:02:52 21° 310° (NW) 13:06:06 .
POLYITAN 1 27 Jul 13:01:43 13:05:54 54° 258° (WSW) 13:10:07 437.675
BEESAT 3 27 Jul 13:06:42 13:08:31 13° 116° (ESE) 13:10:20 437.485
ITAMSAT 1 27 Jul 13:06:56 13:09:28 14° 29° (NNE) 13:11:58 435.822/435.867
BUGSAT 1 27 Jul 13:12:26 13:16:38 69° 69° (ENE) 13:20:50 437.445
QB50P2 27 Jul 13:15:13 13:19:16 40° 262° (W) 13:23:19 145.880/145.840
PCSat 27 Jul 13:17:41 13:23:10 89° 217° (SW) 13:28:37 145.827
AO-73 27 Jul 13:17:42 13:19:53 14° 317° (NW) 13:22:03 145.935
NANOSAT C BR1 27 Jul 13:24:27 13:28:28 39° 263° (W) 13:32:29 145.865
EO-79 27 Jul 13:26:23 13:30:20 36° 263° (W) 13:34:19 145.935-145.965
SO-50 27 Jul 13:26:36 13:31:09 82° 26° (NNE) 13:35:43 436.795
VELOX 1 27 Jul 13:27:42 13:30:51 18° 87° (E) 13:33:59 145.980
Gurwin Techsat 1B 27 Jul 13:33:00 13:38:04 46° 58° (ENE) 13:43:09 435.225
BEESAT 2 27 Jul 13:52:48 13:54:44 13° 116° (ESE) 13:56:41 435.950
AIST 2D 27 Jul 13:54:45 13:55:22 10° 278° (W) 13:55:59 435.315
SPROUT 27 Jul 13:56:58 14:00:51 32° 95° (E) 14:04:41 437.525
AO-85 27 Jul 13:57:47 14:01:03 25° 127° (SE) 14:04:20 145.980
UKube-1 27 Jul 14:02:41 14:03:30 10° 80° (E) 14:04:18 .
LO-87 27 Jul 14:05:48 14:09:21 52° 294° (WNW) 14:12:52 145.935 - 145.965
NO-84 27 Jul 14:09:50 14:12:40 27° 166° (SSE) 14:15:43 435.350 FM
EO-88 27 Jul 14:11:47 14:13:59 15° 311° (NW) 14:16:10 145.990 - 145.960
AO-7 27 Jul 14:23:00 14:30:58 50° 45° (NE) 14:38:56 .
Oscar 19 27 Jul 14:23:56 14:29:03 71° 255° (WSW) 14:34:13 437.125/150
DELFI C3 27 Jul 14:26:44 14:28:25 12° 318° (NW) 14:30:04 145.870
ESTCUBE 1 27 Jul 14:30:26 14:34:56 62° 293° (WNW) 14:39:24 437.505/2401.250
DUCHIFAT 1 27 Jul 14:33:10 14:35:34 15° 276° (W) 14:37:57 145.980
HO-68 27 Jul 14:38:27 14:42:56 18° 354° (N) 14:47:24 435.675
POLYITAN 1 27 Jul 14:41:19 14:42:41 11° 280° (W) 14:44:02 437.675
BEESAT 3 27 Jul 14:41:22 14:45:16 48° 137° (SE) 14:49:11 437.485
50 SAT 27 Jul 14:42:29 14:45:36 30° 96° (E) 14:48:41 437.505
ITAMSAT 1 27 Jul 14:42:59 14:47:38 33° 52° (NE) 14:52:17 435.822/435.867
BUGSAT 1 27 Jul 14:48:57 14:52:24 24° 269° (W) 14:55:51 437.445
DX 1 27 Jul 14:59:43 15:03:48 35° 97° (E) 15:07:52 434.975-435.025
PCSat 27 Jul 15:01:24 15:06:07 31° 241° (WSW) 15:10:48 145.827
VELOX 1 27 Jul 15:03:29 15:07:59 85° 106° (ESE) 15:12:29 145.980
SO-50 27 Jul 15:07:13 15:11:23 37° 228° (SW) 15:15:34 436.795
O/OREOS (USA 219) 27 Jul 15:12:36 15:14:17 12° 98° (E) 15:15:59 437.305
Gurwin Techsat 1B 27 Jul 15:12:54 15:18:04 49° 260° (W) 15:23:16 435.225
CUTE-I 27 Jul 15:16:29 15:17:48 11° 19° (NNE) 15:19:06 437.470
BEESAT 2 27 Jul 15:27:45 15:31:40 49° 137° (SE) 15:35:38 435.950
RS-15 27 Jul 15:31:16 15:40:15 25° 99° (E) 15:49:13 29.354- 29.394
SPROUT 27 Jul 15:32:48 15:36:58 51° 296° (WNW) 15:41:07 437.525
UKube-1 27 Jul 15:36:21 15:40:36 49° 101° (E) 15:44:49 .
AO-85 27 Jul 15:37:06 15:41:02 88° 150° (SSE) 15:45:03 145.980
MOZHAYETS 4 27 Jul 15:40:01 15:40:41 10° 77° (ENE) 15:41:21
LO-87 27 Jul 15:40:32 15:42:03 12° 314° (NW) 15:43:35 145.935 - 145.965
NO-84 27 Jul 15:46:31 15:49:34 30° 187° (S) 15:52:51 435.350 FM
DOVE 4 27 Jul 15:49:11 15:52:30 17° 39° (NE) 15:55:52 437.250
Oscar 19 27 Jul 16:05:54 16:09:20 18° 276° (W) 16:12:48 437.125/150
ESTCUBE 1 27 Jul 16:08:00 16:11:01 18° 315° (NW) 16:14:02 437.505/2401.250
50 SAT 27 Jul 16:15:10 16:18:24 38° 297° (WNW) 16:21:38 437.505
AO-7 27 Jul 16:15:10 16:23:33 73° 250° (WSW) 16:31:59 .
BEESAT 3 27 Jul 16:18:47 16:22:50 64° 339° (NNW) 16:26:53 437.485
ITAMSAT 1 27 Jul 16:21:35 16:26:50 72° 254° (WSW) 16:32:06 435.822/435.867
HO-68 27 Jul 16:23:24 16:28:26 21° 20° (NNE) 16:33:27 435.675
DX 1 27 Jul 16:35:54 16:40:10 49° 298° (WNW) 16:44:24 434.975-435.025
BEESAT 27 Jul 16:39:44 16:44:01 32° 94° (E) 16:48:16 436.000
VELOX 1 27 Jul 16:40:24 16:44:02 25° 309° (NW) 16:47:39 145.980
O/OREOS (USA 219) 27 Jul 16:48:23 16:52:45 52° 119° (ESE) 16:57:07 437.305
LilacSat-2 27 Jul 16:50:13 16:52:04 13° 46° (NE) 16:53:57 437.200
CUTE-I 27 Jul 16:52:04 16:56:10 23° 43° (NE) 17:00:17 437.470
ITUPSAT 1 27 Jul 16:54:54 16:59:25 39° 98° (E) 17:03:52 437.325
Gurwin Techsat 1B 27 Jul 16:57:09 16:59:22 12° 283° (WNW) 17:01:37 435.225
XW-2F 27 Jul 16:58:42 17:00:40 14° 47° (NE) 17:02:38 145.980 - 146.000
BEESAT 2 27 Jul 17:05:22 17:09:25 63° 339° (NNW) 17:13:30 435.950
SPROUT 27 Jul 17:09:40 17:12:04 15° 317° (NW) 17:14:28 437.525
UKube-1 27 Jul 17:12:35 17:16:34 36° 302° (WNW) 17:20:33 .
MOZHAYETS 4 27 Jul 17:14:36 17:19:02 47° 99° (E) 17:23:27
AO-85 27 Jul 17:17:51 17:21:42 50° 353° (N) 17:25:41 145.980
NO-84 27 Jul 17:23:51 17:26:22 18° 207° (SSW) 17:29:01 435.350 FM
DOVE 4 27 Jul 17:24:12 17:29:09 48° 61° (ENE) 17:34:14 437.250
XW-2D 27 Jul 17:28:22 17:31:18 22° 55° (NE) 17:34:15 145.860 - 145.880
KKS-1 27 Jul 17:35:11 17:37:36 14° 83° (E) 17:40:02 437.445
XW-2B 27 Jul 17:38:18 17:41:24 25° 57° (ENE) 17:44:31 145.730 - 145.750
RS-15 27 Jul 17:38:18 17:50:13 60° 127° (SE) 18:02:06 29.354- 29.394
CUTE 1.7 + AOD 2 27 Jul 17:48:27 17:50:35 14° 42° (NE) 17:52:42 437.475
NUDT-PHONESAT 27 Jul 17:51:29 17:54:34 25° 57° (ENE) 17:57:38 437.300
XW-2C 27 Jul 17:55:26 17:58:50 33° 61° (ENE) 18:02:14 145.795 - 145.815
SEEDS 27 Jul 17:55:34 17:57:07 12° 40° (NE) 17:58:40 437.485
BEESAT 3 27 Jul 17:56:55 18:00:52 48° 2° (N) 18:04:48 437.485
CUBESAT XI-V 27 Jul 17:57:03 18:01:17 32° 94° (E) 18:05:30 437.345
STARS 27 Jul 17:57:25 17:58:38 11° 80° (E) 17:59:51 437.465
CUBEBUG 2 27 Jul 17:59:18 18:01:20 13° 40° (NE) 18:03:20 437.445
ITAMSAT 1 27 Jul 18:03:37 18:07:14 18° 275° (W) 18:10:51 435.822/435.867
HO-68 27 Jul 18:08:03 18:14:34 39° 45° (NE) 18:21:06 435.675
KAITUO 1B 27 Jul 18:09:58 18:13:21 35° 62° (ENE) 18:16:45 145.475/437.950
AO-7 27 Jul 18:11:08 18:17:51 26° 275° (W) 18:24:38 .
DX 1 27 Jul 18:13:01 18:15:30 15° 319° (NW) 18:18:00 434.975-435.025
BEESAT 27 Jul 18:17:24 18:22:07 60° 296° (WNW) 18:26:48 436.000
YUBILEINY 27 Jul 18:21:15 18:28:19 28° 73° (ENE) 18:35:22 435.215
LilacSat-2 27 Jul 18:21:58 18:25:39 55° 68° (ENE) 18:29:22 437.200
XW-2A 27 Jul 18:24:15 18:25:31 12° 47° (NE) 18:26:46 145.665 - 145.685
O/OREOS (USA 219) 27 Jul 18:28:00 18:32:18 44° 322° (NW) 18:36:38 437.305
AAUSAT CUBESAT 2 27 Jul 18:29:51 18:31:31 12° 41° (NE) 18:33:12 437.432
CUTE-I 27 Jul 18:30:09 18:35:29 68° 66° (ENE) 18:40:52 437.470
XW-2F 27 Jul 18:30:27 18:34:08 59° 69° (ENE) 18:37:50 145.980 - 146.000
ITUPSAT 1 27 Jul 18:32:47 18:37:23 49° 299° (WNW) 18:41:59 437.325
BEESAT 2 27 Jul 18:43:40 18:47:39 48° 3° (N) 18:51:37 435.950
UWE-3 27 Jul 18:49:44 18:52:38 17° 47° (NE) 18:55:29 435.000/436.395/437.385
UKube-1 27 Jul 18:49:56 18:51:34 12° 324° (NW) 18:53:11 .
MOZHAYETS 4 27 Jul 18:51:56 18:56:12 40° 300° (WNW) 19:00:27
ZACube-1 27 Jul 18:57:26 18:59:37 14° 43° (NE) 19:01:48 437.345
AO-85 27 Jul 18:58:36 19:02:33 59° 16° (NNE) 19:06:41 145.980
XW-2D 27 Jul 19:01:26 19:05:10 71° 255° (WSW) 19:08:57 145.860 - 145.880
DOVE 4 27 Jul 19:01:59 19:06:54 46° 264° (W) 19:12:01 437.250
KKS-1 27 Jul 19:10:35 19:15:04 65° 104° (ESE) 19:19:32 437.445
XW-2B 27 Jul 19:11:39 19:15:22 60° 258° (WSW) 19:19:06 145.730 - 145.750
Oscar 11 27 Jul 19:17:46 19:20:10 15° 43° (NE) 19:22:35 .
CUTE 1.7 + AOD 2 27 Jul 19:21:31 19:25:33 48° 64° (ENE) 19:29:38 437.475
NUDT-PHONESAT 27 Jul 19:24:38 19:28:16 56° 258° (WSW) 19:31:54 437.300
SEEDS 27 Jul 19:27:56 19:31:50 39° 62° (ENE) 19:35:47 437.485
XW-2C 27 Jul 19:29:24 19:32:59 41° 261° (W) 19:36:35 145.795 - 145.815
STARS 27 Jul 19:31:43 19:36:04 51° 101° (ESE) 19:40:21 437.465
CUBEBUG 2 27 Jul 19:32:42 19:37:00 40° 61° (ENE) 19:41:11 437.445
CUBESAT XI-V 27 Jul 19:34:21 19:38:56 57° 295° (WNW) 19:43:32 437.345
AO-73 27 Jul 19:34:27 19:37:36 20° 50° (NE) 19:40:44 145.935
BEESAT 3 27 Jul 19:34:46 19:38:51 75° 27° (NNE) 19:42:53 437.485
KAITUO 1B 27 Jul 19:43:54 19:47:22 38° 262° (W) 19:50:52 145.475/437.950
RS-15 27 Jul 19:50:02 20:02:30 84° 336° (NNW) 20:14:47 29.354- 29.394
XW-2A 27 Jul 19:54:17 19:57:36 55° 68° (ENE) 20:00:54 145.665 - 145.685
HO-68 27 Jul 19:54:40 20:01:52 84° 248° (WSW) 20:09:07 435.675
BEESAT 27 Jul 19:55:52 19:59:09 19° 318° (NW) 20:02:24 436.000
LilacSat-2 27 Jul 19:57:05 20:00:13 25° 268° (W) 20:03:24 437.200
AAUSAT CUBESAT 2 27 Jul 20:02:10 20:06:03 42° 62° (ENE) 20:10:00 437.432
XW-2F 27 Jul 20:05:35 20:08:36 23° 269° (W) 20:11:37 145.980 - 146.000
O/OREOS (USA 219) 27 Jul 20:09:12 20:12:46 22° 346° (NNW) 20:16:19 437.305
CUTE-I 27 Jul 20:11:08 20:15:58 33° 267° (W) 20:20:50 437.470
ITUPSAT 1 27 Jul 20:11:25 20:14:20 16° 321° (NW) 20:17:14 437.325
YUBILEINY 27 Jul 20:15:06 20:23:55 78° 99° (E) 20:32:45 435.215
BEESAT 2 27 Jul 20:21:41 20:25:48 76° 26° (NNE) 20:29:53 435.950
STRAND 1 27 Jul 20:22:05 20:25:57 21° 87° (E) 20:29:47 437.568
UWE-3 27 Jul 20:24:00 20:28:26 63° 68° (ENE) 20:32:45 435.000/436.395/437.385
MOZHAYETS 4 27 Jul 20:30:14 20:32:20 13° 323° (NW) 20:34:26
ZACube-1 27 Jul 20:30:53 20:35:05 47° 64° (ENE) 20:39:11 437.345
DELFI C3 27 Jul 20:37:33 20:40:16 18° 49° (NE) 20:43:01 145.870
XW-2D 27 Jul 20:38:23 20:40:05 13° 276° (W) 20:41:48 145.860 - 145.880
AO-85 27 Jul 20:39:02 20:43:01 58° 219° (SW) 20:47:13 145.980
DOVE 4 27 Jul 20:44:13 20:45:59 12° 286° (WNW) 20:47:47 437.250
KKS-1 27 Jul 20:47:28 20:51:24 30° 306° (NW) 20:55:19 437.445
XW-2B 27 Jul 20:49:26 20:50:23 11° 278° (W) 20:51:21 145.730 - 145.750
Oscar 11 27 Jul 20:51:20 20:55:30 51° 65° (ENE) 20:59:42 .
CUTE 1.7 + AOD 2 27 Jul 20:57:45 21:01:34 33° 265° (W) 21:05:26 437.475
SEEDS 27 Jul 21:03:37 21:07:35 40° 263° (W) 21:11:34 437.485
STARS 27 Jul 21:08:16 21:12:20 36° 302° (WNW) 21:16:21 437.465
AO-73 27 Jul 21:09:00 21:13:21 82° 70° (ENE) 21:17:37 145.935
CUBEBUG 2 27 Jul 21:09:11 21:13:38 45° 262° (W) 21:17:58 437.445
CUBESAT XI-V 27 Jul 21:12:30 21:15:32 17° 316° (NW) 21:18:34 437.345
BEESAT 3 27 Jul 21:12:31 21:16:15 37° 227° (SW) 21:19:57 437.485
FO-29 27 Jul 21:25:10 21:28:49 14° 68° (ENE) 21:32:17 435.910
XW-2A 27 Jul 21:28:01 21:30:38 21° 268° (W) 21:33:15 145.665 - 145.685
AAUSAT CUBESAT 2 27 Jul 21:37:45 21:41:36 38° 263° (W) 21:45:30 437.432
HO-68 27 Jul 21:44:39 21:50:40 28° 272° (W) 21:56:42 435.675
LO-87 27 Jul 21:47:14 21:48:37 12° 45° (NE) 21:50:01 145.935 - 145.965
O/OREOS (USA 219) 27 Jul 21:50:05 21:53:36 22° 12° (NNE) 21:57:07 437.305
EO-88 27 Jul 21:50:57 21:54:20 37° 63° (ENE) 21:57:44 145.990 - 145.960
BEESAT 2 27 Jul 21:59:36 22:03:22 36° 228° (SW) 22:07:06 435.950
STRAND 1 27 Jul 22:00:45 22:05:55 84° 108° (ESE) 22:11:03 437.568
Tancredo 1 27 Jul 22:00:49 22:01:01 10° 160° (SSE) 22:01:13 437.200
UWE-3 27 Jul 22:01:23 22:05:14 27° 268° (W) 22:09:01 435.000/436.395/437.385
RS-15 27 Jul 22:03:38 22:16:06 75° 8° (N) 22:28:10 29.354- 29.394
ZACube-1 27 Jul 22:07:31 22:11:32 35° 264° (W) 22:15:29 437.345
DELFI C3 27 Jul 22:10:32 22:14:30 77° 69° (ENE) 22:18:31 145.870
YUBILEINY 27 Jul 22:13:15 22:21:34 43° 306° (NW) 22:29:55 435.215
AO-85 27 Jul 22:20:09 22:22:45 16° 240° (WSW) 22:25:27 145.980
TIGRISAT 27 Jul 22:25:30 22:26:15 10° 78° (ENE) 22:27:00 435.000
KKS-1 27 Jul 22:25:41 22:26:46 11° 328° (NNW) 22:27:53 437.445
ESTCUBE 1 27 Jul 22:27:37 22:31:03 22° 49° (NE) 22:34:31 437.505/2401.250
Oscar 11 27 Jul 22:28:00 22:31:52 32° 266° (W) 22:35:46 .
STARS 27 Jul 22:45:54 22:47:37 12° 325° (NW) 22:49:20 437.465
AO-73 27 Jul 22:46:53 22:50:08 20° 272° (W) 22:53:21 145.935
VELOX 1 27 Jul 23:00:05 23:02:46 16° 42° (NE) 23:05:29 145.980
nSIGHT-1 27 Jul 23:01:15 23:02:52 13° 163° (SSE) 23:04:27 .
FO-29 27 Jul 23:08:57 23:16:02 46° 94° (E) 23:22:21 435.910
UNISAT 6 27 Jul 23:16:43 23:20:24 26° 91° (E) 23:24:02 437.425
LO-87 27 Jul 23:17:47 23:21:18 48° 66° (ENE) 23:24:51 145.935 - 145.965
EO-88 27 Jul 23:24:42 23:28:04 34° 263° (W) 23:31:27 145.990 - 145.960
SPROUT 27 Jul 23:25:17 23:28:31 21° 50° (NE) 23:31:46 437.525
O/OREOS (USA 219) 27 Jul 23:29:50 23:34:06 41° 36° (NE) 23:38:23 437.305
UKube-1 27 Jul 23:32:43 23:33:57 11° 34° (NE) 23:35:10 .
Tancredo 1 27 Jul 23:33:50 23:35:31 14° 180° (S) 23:37:12 437.200
STRAND 1 27 Jul 23:40:21 23:44:42 29° 310° (NW) 23:49:03 437.568
DELFI C3 27 Jul 23:46:48 23:49:46 20° 271° (W) 23:52:45 145.870
PRISM 27 Jul 23:49:43 23:53:39 37° 98° (E) 23:57:32 437.425
50 SAT 27 Jul 23:52:36 23:54:14 13° 47° (NE) 23:55:52 437.505
ISS 27 Jul 23:57:30 23:59:38 16° 175° (S) 00:01:44 437.550
TIGRISAT 27 Jul 23:59:47 00:04:04 50° 100° (E) 00:08:14 435.000
ESTCUBE 1 28 Jul 00:02:51 00:07:21 83° 68° (ENE) 00:11:53 437.505/2401.250
YUBILEINY 28 Jul 00:14:48 00:21:18 22° 336° (NNW) 00:27:48 435.215
RS-15 28 Jul 00:16:53 00:29:13 80° 219° (SW) 00:41:00 29.354- 29.394
M-CUBED/EXP-1 PRIME 28 Jul 00:26:13 00:30:14 29° 101° (E) 00:34:19 437.505
DX 1 28 Jul 00:29:40 00:33:18 26° 52° (NE) 00:36:56 434.975-435.025
DUCHIFAT 1 28 Jul 00:30:36 00:31:35 11° 80° (E) 00:32:34 145.980
VELOX 1 28 Jul 00:34:04 00:38:24 53° 64° (ENE) 00:42:47 145.980
nSIGHT-1 28 Jul 00:36:18 00:38:24 16° 183° (S) 00:40:30 .
POLYITAN 1 28 Jul 00:37:08 00:39:28 14° 84° (E) 00:41:46 437.675
BEESAT 28 Jul 00:45:29 00:46:47 11° 29° (NNE) 00:48:05 436.000
QB50P2 28 Jul 00:49:57 00:53:00 19° 88° (E) 00:56:01 145.880/145.840
LO-87 28 Jul 00:51:48 00:54:56 27° 266° (W) 00:58:06 145.935 - 145.965
UNISAT 6 28 Jul 00:53:10 00:57:32 64° 292° (WNW) 01:01:46 437.425
FO-29 28 Jul 00:54:04 01:01:26 64° 299° (WNW) 01:08:00 435.910
NANOSAT C BR1 28 Jul 00:58:34 01:01:37 19° 88° (E) 01:04:39 145.865
SPROUT 28 Jul 00:59:37 01:03:56 85° 72° (ENE) 01:08:16 437.525
ITUPSAT 1 28 Jul 01:00:04 01:02:04 13° 32° (NNE) 01:04:03 437.325
EO-79 28 Jul 01:00:39 01:03:55 21° 89° (E) 01:07:09 145.935-145.965
UKube-1 28 Jul 01:05:00 01:08:52 33° 56° (ENE) 01:12:46 .
AIST 2D 28 Jul 01:06:02 01:09:21 38° 98° (E) 01:12:38 435.315
O/OREOS (USA 219) 28 Jul 01:09:19 01:13:44 59° 239° (WSW) 01:18:10 437.305
Tancredo 1 28 Jul 01:09:38 01:10:01 10° 200° (SSW) 01:10:25 437.200
MOZHAYETS 4 28 Jul 01:16:33 01:17:55 11° 34° (NE) 01:19:16
STRAND 1 28 Jul 01:20:38 01:22:29 12° 333° (NNW) 01:24:21 437.568
50 SAT 28 Jul 01:22:57 01:26:20 60° 68° (ENE) 01:29:45 437.505
PRISM 28 Jul 01:25:02 01:29:02 44° 298° (WNW) 01:33:00 437.425
ISS 28 Jul 01:33:28 01:35:14 14° 195° (SSW) 01:37:01 437.550
TIGRISAT 28 Jul 01:36:42 01:40:41 35° 302° (WNW) 01:44:35 435.000
ESTCUBE 1 28 Jul 01:41:17 01:44:44 21° 272° (W) 01:48:13 437.505/2401.250
M-CUBED/EXP-1 PRIME 28 Jul 02:00:27 02:04:59 69° 300° (WNW) 02:09:37 437.505
DUCHIFAT 1 28 Jul 02:04:08 02:08:17 52° 101° (ESE) 02:12:22 145.980
DX 1 28 Jul 02:04:44 02:09:08 78° 254° (WSW) 02:13:34 434.975-435.025
VELOX 1 28 Jul 02:11:03 02:15:05 33° 265° (W) 02:19:10 145.980
POLYITAN 1 28 Jul 02:11:49 02:16:04 70° 106° (ESE) 02:20:15 437.675
nSIGHT-1 28 Jul 02:13:09 02:13:52 11° 203° (SSW) 02:14:35 .
YUBILEINY 28 Jul 02:16:30 02:22:21 19° 9° (N) 02:28:11 435.215
BEESAT 28 Jul 02:19:11 02:23:14 28° 52° (NE) 02:27:19 436.000
BUGSAT 1 28 Jul 02:19:28 02:23:06 29° 94° (E) 02:26:40 437.445
QB50P2 28 Jul 02:25:07 02:29:23 87° 289° (WNW) 02:33:37 145.880/145.840
Oscar 19 28 Jul 02:25:21 02:29:15 21° 86° (E) 02:33:07 437.125/150
RS-15 28 Jul 02:29:32 02:40:20 40° 248° (WSW) 02:50:43 29.354- 29.394
UNISAT 6 28 Jul 02:30:39 02:33:33 17° 315° (NW) 02:36:24 437.425
NANOSAT C BR1 28 Jul 02:33:41 02:37:56 86° 286° (WNW) 02:42:08 145.865
ITUPSAT 1 28 Jul 02:34:26 02:38:43 34° 55° (NE) 02:43:01 437.325
EO-79 28 Jul 02:35:57 02:40:12 78° 291° (WNW) 02:44:24 145.935-145.965
SPROUT 28 Jul 02:37:13 02:40:25 20° 272° (W) 02:43:37 437.525
FO-29 28 Jul 02:39:16 02:45:19 28° 324° (NW) 02:50:56 435.910
AIST 2D 28 Jul 02:39:23 02:42:32 32° 298° (WNW) 02:45:40 435.315
UKube-1 28 Jul 02:40:30 02:44:46 56° 257° (WSW) 02:49:04 .
MOZHAYETS 4 28 Jul 02:49:51 02:53:54 32° 56° (NE) 02:57:57
O/OREOS (USA 219) 28 Jul 02:50:04 02:52:17 14° 261° (W) 02:54:30 437.305
50 SAT 28 Jul 02:56:48 02:59:24 20° 269° (W) 03:02:01 437.505
PRISM 28 Jul 03:01:27 03:03:26 13° 320° (NW) 03:05:23 437.425
KKS-1 28 Jul 03:08:23 03:10:44 14° 38° (NE) 03:13:03 437.445
TIGRISAT 28 Jul 03:14:54 03:16:18 11° 324° (NW) 03:17:40 435.000
Gurwin Techsat 1B 28 Jul 03:18:20 03:23:10 33° 93° (E) 03:27:57 435.225
STARS 28 Jul 03:29:18 03:30:54 12° 35° (NE) 03:32:32 437.465
CUBESAT XI-V 28 Jul 03:34:03 03:37:45 24° 50° (NE) 03:41:28 437.345
M-CUBED/EXP-1 PRIME 28 Jul 03:35:20 03:38:49 22° 321° (NW) 03:42:23 437.505
DUCHIFAT 1 28 Jul 03:40:04 03:43:50 32° 302° (WNW) 03:47:34 145.980
DX 1 28 Jul 03:43:15 03:46:05 17° 274° (W) 03:48:55 434.975-435.025
POLYITAN 1 28 Jul 03:48:02 03:51:33 26° 306° (NW) 03:55:03 437.675
BUGSAT 1 28 Jul 03:54:40 03:58:43 54° 295° (WNW) 04:02:42 437.445
BEESAT 28 Jul 03:55:54 04:00:41 77° 253° (WSW) 04:05:30 436.000
QB50P2 28 Jul 04:01:30 04:04:42 21° 310° (NW) 04:07:54 145.880/145.840
Oscar 19 28 Jul 04:04:09 04:09:23 83° 110° (ESE) 04:14:34 437.125/150
AO-7 28 Jul 04:05:21 04:11:43 23° 83° (E) 04:18:01 .
NANOSAT C BR1 28 Jul 04:10:00 04:13:09 21° 310° (NW) 04:16:19 145.865
ITUPSAT 1 28 Jul 04:11:38 04:16:23 62° 256° (WSW) 04:21:09 437.325
EO-79 28 Jul 04:12:22 04:15:25 19° 311° (NW) 04:18:26 145.935-145.965
YUBILEINY 28 Jul 04:15:13 04:22:50 31° 42° (NE) 04:30:23 435.215
UKube-1 28 Jul 04:20:08 04:21:47 12° 279° (W) 04:23:25 .
FO-29 28 Jul 04:23:43 04:28:13 17° 349° (N) 04:32:31 435.910
ITAMSAT 1 28 Jul 04:24:26 04:28:18 20° 86° (E) 04:32:07 435.822/435.867
MOZHAYETS 4 28 Jul 04:26:21 04:30:53 61° 257° (WSW) 04:35:26
STRAND 1 28 Jul 04:35:48 04:36:41 10° 22° (NNE) 04:37:36 437.568
KKS-1 28 Jul 04:42:05 04:46:21 43° 60° (ENE) 04:50:37 437.445
RS-15 28 Jul 04:44:34 04:48:51 13° 276° (W) 04:53:04 29.354- 29.394
Gurwin Techsat 1B 28 Jul 04:58:13 05:03:32 66° 295° (WNW) 05:08:47 435.225
STARS 28 Jul 05:02:09 05:06:10 35° 57° (ENE) 05:10:13 437.465
CUBESAT XI-V 28 Jul 05:10:03 05:14:40 89° 257° (WSW) 05:19:21 437.345
M-CUBED/EXP-1 PRIME 28 Jul 05:10:44 05:11:58 11° 342° (NNW) 05:13:13 437.505
DUCHIFAT 1 28 Jul 05:17:42 05:18:25 10° 324° (NW) 05:19:07 145.980
BUGSAT 1 28 Jul 05:30:59 05:33:19 15° 317° (NW) 05:35:38 437.445
BEESAT 28 Jul 05:36:01 05:39:17 18° 274° (W) 05:42:33 436.000
Oscar 19 28 Jul 05:43:53 05:48:18 29° 310° (NW) 05:52:43 437.125/150
PCSat 28 Jul 05:52:34 05:57:13 30° 118° (ESE) 06:01:53 145.827
ITUPSAT 1 28 Jul 05:52:35 05:55:12 14° 278° (W) 05:57:50 437.325
AO-7 28 Jul 05:57:51 06:06:13 66° 107° (ESE) 06:14:32 .
ITAMSAT 1 28 Jul 06:03:21 06:08:37 80° 108° (ESE) 06:13:49 435.822/435.867
FO-29 28 Jul 06:06:03 06:10:45 18° 14° (NNE) 06:15:18 435.910
MOZHAYETS 4 28 Jul 06:06:45 06:09:01 13° 279° (W) 06:11:18
STRAND 1 28 Jul 06:10:17 06:14:19 24° 45° (NE) 06:18:20 437.568
YUBILEINY 28 Jul 06:12:34 06:21:24 72° 70° (ENE) 06:30:08 435.215
KKS-1 28 Jul 06:18:41 06:22:57 42° 261° (W) 06:27:16 437.445
STARS 28 Jul 06:38:03 06:42:24 54° 258° (WSW) 06:46:48 437.465
CUTE-I 28 Jul 06:38:05 06:40:29 13° 78° (ENE) 06:42:52 437.470
Gurwin Techsat 1B 28 Jul 06:38:43 06:42:43 22° 318° (NW) 06:46:44 435.225
CUBESAT XI-V 28 Jul 06:49:20 06:52:43 20° 274° (W) 06:56:09 437.345
DOVE 4 28 Jul 06:50:09 06:54:57 33° 91° (E) 06:59:36 437.250
XW-2C 28 Jul 06:52:43 06:54:26 13° 84° (E) 06:56:09 145.795 - 145.815
KAITUO 1B 28 Jul 07:05:37 07:07:27 13° 84° (E) 07:09:17 145.475/437.950
SO-50 28 Jul 07:10:44 07:14:17 23° 123° (ESE) 07:17:51 436.795
HO-68 28 Jul 07:12:42 07:15:41 13° 72° (ENE) 07:18:38 435.675
LilacSat-2 28 Jul 07:19:30 07:22:28 21° 90° (E) 07:25:26 437.200
Oscar 19 28 Jul 07:24:16 07:26:15 12° 333° (NNW) 07:28:13 437.125/150
XW-2F 28 Jul 07:26:44 07:29:44 22° 91° (E) 07:32:44 145.980 - 146.000
PCSat 28 Jul 07:34:39 07:40:07 87° 140° (SE) 07:45:37 145.827
ITAMSAT 1 28 Jul 07:43:12 07:47:43 31° 310° (NW) 07:52:13 435.822/435.867
FO-29 28 Jul 07:47:15 07:53:43 29° 39° (NE) 07:59:58 435.910
STRAND 1 28 Jul 07:47:44 07:52:52 76° 68° (ENE) 07:58:03 437.568
AO-7 28 Jul 07:50:54 07:58:58 54° 312° (NW) 08:07:01 .
XW-2D 28 Jul 07:57:52 08:01:30 41° 99° (E) 08:05:06 145.860 - 145.880
TIGRISAT 28 Jul 07:59:15 08:00:28 11° 35° (NE) 08:01:41 435.000
XW-2B 28 Jul 08:08:02 08:11:43 49° 100° (E) 08:15:24 145.730 - 145.750
YUBILEINY 28 Jul 08:09:46 08:17:52 44° 276° (W) 08:25:55 435.215
M-CUBED/EXP-1 PRIME 28 Jul 08:15:21 08:17:36 14° 27° (NNE) 08:19:55 437.505
CUTE-I 28 Jul 08:16:37 08:21:53 50° 100° (E) 08:27:05 437.470
STARS 28 Jul 08:18:10 08:19:47 12° 279° (W) 08:21:24 437.465
NUDT-PHONESAT 28 Jul 08:18:32 08:22:08 49° 101° (E) 08:25:43 437.300
Gurwin Techsat 1B 28 Jul 08:20:01 08:21:00 10° 341° (NNW) 08:21:58 435.225
XW-2C 28 Jul 08:25:35 08:29:21 71° 104° (ESE) 08:33:08 145.795 - 145.815
DOVE 4 28 Jul 08:27:43 08:33:02 66° 293° (WNW) 08:38:09 437.250
CUTE 1.7 + AOD 2 28 Jul 08:31:52 08:35:23 24° 90° (E) 08:38:53 437.475
SEEDS 28 Jul 08:37:07 08:40:15 20° 88° (E) 08:43:23 437.485
KAITUO 1B 28 Jul 08:38:24 08:42:08 75° 105° (ESE) 08:45:52 145.475/437.950
XW-2A 28 Jul 08:39:25 08:41:28 15° 88° (E) 08:43:30 145.665 - 145.685
SO-50 28 Jul 08:49:41 08:54:12 73° 145° (SE) 08:58:44 436.795
CUBEBUG 2 28 Jul 08:49:52 08:53:10 21° 88° (E) 08:56:24 437.445
UNISAT 6 28 Jul 08:49:53 08:53:11 20° 48° (NE) 08:56:26 437.425
LilacSat-2 28 Jul 08:53:22 08:57:08 66° 291° (WNW) 09:00:54 437.200
HO-68 28 Jul 08:58:45 09:05:33 43° 97° (E) 09:12:18 435.675
XW-2F 28 Jul 09:00:30 09:04:13 61° 292° (WNW) 09:07:56 145.980 - 146.000
AAUSAT CUBESAT 2 28 Jul 09:09:28 09:12:37 20° 88° (E) 09:15:45 437.432
PRISM 28 Jul 09:14:18 09:17:35 23° 51° (NE) 09:20:54 437.425
PCSat 28 Jul 09:18:40 09:23:58 50° 345° (NNW) 09:29:18 145.827
ITAMSAT 1 28 Jul 09:23:34 09:25:49 13° 333° (NNW) 09:28:04 435.822/435.867
STRAND 1 28 Jul 09:28:12 09:32:35 28° 269° (W) 09:37:01 437.568
FO-29 28 Jul 09:29:55 09:37:41 65° 62° (ENE) 09:45:15 435.910
TIGRISAT 28 Jul 09:31:59 09:36:02 32° 57° (ENE) 09:40:02 435.000
XW-2D 28 Jul 09:32:14 09:35:39 33° 299° (WNW) 09:39:03 145.860 - 145.880
UWE-3 28 Jul 09:39:46 09:43:37 33° 95° (E) 09:47:24 435.000/436.395/437.385
XW-2B 28 Jul 09:42:30 09:45:47 29° 301° (WNW) 09:49:05 145.730 - 145.750
AO-7 28 Jul 09:43:28 09:50:21 30° 338° (NNW) 09:57:13 .
ZACube-1 28 Jul 09:45:09 09:48:35 24° 91° (E) 09:52:00 437.345
M-CUBED/EXP-1 PRIME 28 Jul 09:47:17 09:51:00 36° 49° (NE) 09:55:00 437.505
NUDT-PHONESAT 28 Jul 09:52:42 09:55:54 28° 301° (WNW) 09:59:05 437.300
CUTE-I 28 Jul 09:56:51 10:01:58 46° 302° (WNW) 10:07:03 437.470
XW-2C 28 Jul 10:00:16 10:03:14 22° 305° (NW) 10:06:12 145.795 - 145.815
POLYITAN 1 28 Jul 10:06:03 10:07:40 12° 39° (NE) 10:09:15 437.675
